Date String (YYYY-MM-DD hh:mm:ss) UTC,Instrument flags,absolute air pressure of the measurement (hPa),sample flow rate (lpm),inlet stack bypass flow (lpm),air temperature of the measurement (°C),ambient temperature measured by the external sensor (°C),aerosol sample conditioner tube jacket temperature (°C),OPC LED temperature (°C),internal box temperature (°C),relative humidity of the measurement (%),span deviation,mass concentration of particles derived from Lorenz-Mie calculation of OPC scattering (μg/m³),mass concentration of particles derived from Lorenz-Mie calculation of OPC scattering (μg/m³),mass concentration of particles derived from Lorenz-Mie calculation of OPC scattering (μg/m³)
DateTimeUTC,F1_M11,P_M11,Q1_M11,Q2_M11,T1_M11,T2_M11,T3_M11,T4_M11,T5_M11,U1_M11,ZSPAN_M11,X0_M11,X2_M11,X1_M11
2023-10-20 05:00:00,SystemResetWarning,0833.7,5.00,000.00,028.5,024.8,000.0,037.1,029.9,10.0,0000.0,0008.30,0001.76,0000.90
2023-10-20 05:01:00,SystemResetWarning,0833.7,5.00,000.00,028.4,025.2,000.0,037.0,029.9,10.1,0000.0,0008.35,0001.81,0000.89
2023-10-20 05:02:00,SystemResetWarning,0833.7,5.00,000.00,028.4,025.6,000.0,037.0,030.0,10.1,0000.0,0007.88,0001.83,0000.87
2023-10-20 05:03:00,SystemResetWarning,0833.7,4.99,000.00,028.4,025.9,000.0,037.0,030.0,10.1,0000.0,0008.90,0001.87,0000.85
2023-10-20 05:04:00,SystemResetWarning,0833.7,5.00,000.00,028.4,026.1,000.0,037.0,030.0,10.1,0000.0,0009.45,0001.83,0000.83
2023-10-20 05:05:00,SystemResetWarning,0833.7,5.00,000.00,028.4,026.3,000.0,037.0,030.0,10.2,0000.0,0009.14,0001.73,0000.80
2023-10-20 05:06:00,SystemResetWarning,0833.6,5.00,000.00,028.4,026.5,000.0,037.0,030.1,10.1,0000.0,0008.66,0001.65,0000.77
2023-10-20 05:07:00,SystemResetWarning,0833.7,5.00,000.00,028.4,026.7,000.0,037.0,030.1,10.0,0000.0,0009.05,0001.59,0000.74
2023-10-20 05:08:00,SystemResetWarning,0833.7,4.99,000.00,028.4,026.8,000.0,037.0,030.1,10.0,0000.0,0008.87,0001.49,0000.71
2023-10-20 05:09:00,SystemResetWarning,0833.7,4.99,000.00,028.4,026.9,000.0,037.0,030.1,10.1,0000.0,0008.17,0001.39,0000.68
2023-10-20 05:10:00,SystemResetWarning,0833.7,5.00,000.00,028.4,027.0,000.0,037.0,030.2,10.1,0000.0,0007.58,0001.30,0000.64
2023-10-20 05:11:00,SystemResetWarning,0833.7,5.00,000.00,028.5,027.0,000.0,037.0,030.2,10.1,0000.0,0007.37,0001.22,0000.61
2023-10-20 05:12:00,SystemResetWarning,0833.7,5.00,000.00,028.5,027.1,000.0,037.0,030.2,10.2,0000.0,0007.16,0001.13,0000.59
2023-10-20 05:13:00,SystemResetWarning,0833.7,5.00,000.00,028.5,027.1,000.0,037.0,030.2,10.0,0000.0,0007.20,0001.05,0000.57
2023-10-20 05:14:00,SystemResetWarning,0833.7,5.00,000.00,028.5,027.2,000.0,037.0,030.2,10.0,0000.0,0005.63,0000.94,0000.56
2023-10-20 05:15:00,SystemResetWarning,0833.6,5.00,000.00,028.5,027.2,000.0,037.0,030.2,10.0,0000.0,0005.40,0000.92,0000.56
2023-10-20 05:16:00,SystemResetWarning,0833.6,5.00,000.00,028.6,027.3,000.0,037.0,030.3,10.1,0000.0,0005.91,0000.94,0000.57
2023-10-20 05:17:00,SystemResetWarning,0833.6,4.98,000.00,028.6,027.3,000.0,037.0,030.3,10.2,0000.0,0005.76,0000.98,0000.59
2023-10-20 05:18:00,SystemResetWarning,0833.5,4.99,000.00,028.6,027.4,000.0,037.0,030.3,10.2,0000.0,0004.98,0001.03,0000.61
2023-10-20 05:19:00,SystemResetWarning,0833.5,5.01,000.00,028.6,027.4,000.0,037.0,030.4,10.2,0000.0,0005.78,0001.12,0000.63
2023-10-20 05:20:00,SystemResetWarning,0833.5,5.00,000.00,028.7,027.4,000.0,037.1,030.4,10.2,0000.0,0005.98,0001.22,0000.65
2023-10-20 05:21:00,SystemResetWarning,0833.5,5.01,000.00,028.7,027.5,000.0,037.1,030.4,10.3,0000.0,0006.30,0001.36,0000.69
2023-10-20 05:22:00,SystemResetWarning,0833.5,5.00,000.00,028.7,027.5,000.0,037.1,030.4,10.4,0000.0,0006.48,0001.43,0000.71
2023-10-20 05:23:00,SystemResetWarning,0833.4,4.98,000.00,028.7,027.5,000.0,037.1,030.4,10.5,0000.0,0006.58,0001.47,0000.73
2023-10-20 05:24:00,SystemResetWarning,0833.5,5.01,000.00,028.7,027.5,000.0,037.1,030.4,10.4,0000.0,0006.26,0001.49,0000.73
2023-10-20 05:25:00,SystemResetWarning,0833.4,5.01,000.00,028.8,027.6,000.0,037.1,030.5,10.0,0000.0,0007.45,0001.51,0000.74
2023-10-20 05:26:00,SystemResetWarning,0833.4,4.99,000.00,028.8,027.6,000.0,037.2,030.5,9.9,0000.0,0006.72,0001.48,0000.73
2023-10-20 05:27:00,SystemResetWarning,0833.4,4.99,000.00,028.8,027.6,000.0,037.2,030.5,9.7,0000.0,0006.05,0001.46,0000.72
2023-10-20 05:28:00,SystemResetWarning,0833.4,5.01,000.00,028.8,027.6,000.0,037.2,030.5,9.7,0000.0,0005.96,0001.44,0000.71
2023-10-20 05:29:00,SystemResetWarning,0833.4,5.01,000.00,028.8,027.6,000.0,037.2,030.5,9.9,0000.0,0005.83,0001.40,0000.69
2023-10-20 05:30:00,SystemResetWarning,0833.4,4.99,000.00,028.9,027.6,000.0,037.2,030.5,9.6,0000.0,0004.96,0001.31,0000.68
2023-10-20 05:31:00,SystemResetWarning,0833.5,5.00,000.00,028.9,027.6,000.0,037.3,030.5,9.4,0000.0,0005.22,0001.24,0000.67
2023-10-20 05:32:00,SystemResetWarning,0833.4,4.99,000.00,028.9,027.6,000.0,037.3,030.6,9.4,0000.0,0005.86,0001.15,0000.64
2023-10-20 05:33:00,SystemResetWarning,0833.4,5.01,000.00,028.9,027.7,000.0,037.3,030.6,9.4,0000.0,0005.77,0001.08,0000.63
2023-10-20 05:34:00,SystemResetWarning,0833.4,5.00,000.00,028.9,027.7,000.0,037.3,030.6,9.3,0000.0,0005.67,0001.05,0000.62
2023-10-20 05:35:00,SystemResetWarning,0833.4,5.00,000.00,028.9,027.7,000.0,037.3,030.6,9.1,0000.0,0005.66,0001.06,0000.62
2023-10-20 05:36:00,SystemResetWarning,0833.4,5.00,000.00,028.9,027.7,000.0,037.3,030.6,9.2,0000.0,0004.19,0001.07,0000.62
2023-10-20 05:37:00,SystemResetWarning,0833.4,5.00,000.00,029.0,027.7,000.0,037.3,030.6,9.3,0000.0,0003.94,0001.09,0000.63
2023-10-20 05:38:00,SystemResetWarning,0833.4,5.01,000.00,029.0,027.7,000.0,037.3,030.6,9.4,0000.0,0003.91,0001.08,0000.63
2023-10-20 05:39:00,SystemResetWarning,0833.3,4.99,000.00,029.0,027.7,000.0,037.4,030.6,9.6,0000.0,0004.95,0001.10,0000.64
2023-10-20 05:40:00,SystemResetWarning,0833.3,4.99,000.00,029.0,027.7,000.0,037.4,030.7,9.8,0000.0,0005.09,0001.11,0000.64
2023-10-20 05:41:00,SystemResetWarning,0833.3,5.00,000.00,029.0,026.0,000.0,037.3,030.5,10.1,0000.0,0005.15,0001.11,0000.64
2023-10-20 05:42:00,SystemResetWarning,0833.2,5.01,000.00,028.9,024.5,000.0,037.2,030.3,10.2,0000.0,0005.17,0001.10,0000.63
2023-10-20 05:43:00,SystemResetWarning,0833.2,5.01,000.00,028.8,024.3,000.0,037.2,030.0,10.3,0000.0,0004.29,0001.06,0000.61
2023-10-20 05:44:00,SystemResetWarning,0833.2,5.00,000.00,028.6,024.5,000.0,037.2,029.9,10.6,0000.0,0004.14,0001.03,0000.62
2023-10-20 05:45:00,SystemResetWarning,0833.2,5.00,000.00,028.5,024.9,000.0,037.1,029.9,10.7,0000.0,0004.32,0001.05,0000.62
2023-10-20 05:46:00,SystemResetWarning,0833.1,5.01,000.00,028.5,025.3,000.0,037.1,029.9,10.8,0000.0,0005.29,0001.14,0000.63
2023-10-20 05:47:00,SystemResetWarning,0833.1,4.99,000.00,028.5,025.7,000.0,037.1,030.0,10.8,0000.0,0005.45,0001.15,0000.63
2023-10-20 05:48:00,SystemResetWarning,0833.1,4.99,000.00,028.4,026.0,000.0,037.1,030.0,10.8,0000.0,0005.83,0001.15,0000.64
2023-10-20 05:49:00,SystemResetWarning,0833.1,5.00,000.00,028.4,026.2,000.0,037.1,030.1,10.6,0000.0,0005.98,0001.22,0000.65
2023-10-20 05:50:00,SystemResetWarning,0833.1,5.01,000.00,028.4,026.4,000.0,037.1,030.1,10.6,0000.0,0005.25,0001.23,0000.65
2023-10-20 05:51:00,SystemResetWarning,0833.1,5.00,000.00,028.4,026.6,000.0,037.0,030.1,10.6,0000.0,0004.95,0001.22,0000.64
2023-10-20 05:52:00,SystemResetWarning,0833.1,4.99,000.00,028.5,026.8,000.0,037.0,030.1,10.7,0000.0,0005.12,0001.25,0000.65
2023-10-20 05:53:00,SystemResetWarning,0833.1,5.00,000.00,028.5,026.9,000.0,037.0,030.2,10.9,0000.0,0005.36,0001.31,0000.67
2023-10-20 05:54:00,SystemResetWarning,0833.1,5.01,000.00,028.5,027.0,000.0,037.0,030.2,11.1,0000.0,0004.62,0001.32,0000.68
2023-10-20 05:55:00,SystemResetWarning,0833.2,5.01,000.00,028.5,027.1,000.0,037.0,030.2,11.1,0000.0,0005.89,0001.37,0000.69
2023-10-20 05:56:00,SystemResetWarning,0833.2,5.01,000.00,028.6,027.2,000.0,037.0,030.2,11.1,0000.0,0006.51,0001.42,0000.70
2023-10-20 05:57:00,SystemResetWarning,0833.2,5.00,000.00,028.6,027.3,000.0,037.0,030.3,11.1,0000.0,0005.50,0001.39,0000.70
2023-10-20 05:58:00,SystemResetWarning,0833.2,4.98,000.00,028.6,027.3,000.0,037.1,030.3,11.0,0000.0,0005.33,0001.38,0000.70
2023-10-20 05:59:00,SystemResetWarning,0833.2,5.00,000.00,028.6,027.4,000.0,037.1,030.3,11.0,0000.0,0005.04,0001.43,0000.71
